Weather History for KHOU - October, 2011

Change the Weather History Date:

Tuesday, October 25, 2011

  Actual Average Record
Temperature  
Mean Temperature 77 °F 69 °F  
Max Temperature 86 °F 80 °F 91 °F (1950)
Min Temperature 67 °F 59 °F 39 °F (1980)
Degree Days  
Heating Degree Days 0 2  
Month to date heating degree days 7 15  
Since 1 July heating degree days 7 16  
Cooling Degree Days 12 6  
Month to date cooling degree days 204 198  
Year to date cooling degree days 3806 3023  
Growing Degree Days 26 (Base 50)    
Moisture  
Dew Point 67 °F    
Average Humidity 71    
Maximum Humidity 93    
Minimum Humidity 48    
Precipitation  
Precipitation 0.00 in 0.20 in 9.25 in (1984)
Month to date precipitation 3.05 4.63  
Year to date precipitation 15.28 40.62  
Sea Level Pressure  
Sea Level Pressure 30.11 in    
Wind  
Wind Speed 5 mph (SSE)    
Max Wind Speed 17 mph    
Max Gust Speed 21 mph    
Visibility 9 miles    
Events      
T = Trace of Precipitation, MM = Missing Value Source: NWS Daily Summary

Daily Weather History Graph

Daily Weather History Graph

Search for Another Location

Airport or City:

Trip Planner

Search our weather history database for the weather conditions in past years. The results will help you decide how hot, cold, wet, or windy it might be!

Date:

Astronomy

Oct. 25, 2011 Rise Set
Actual Time 7:29 AM CDT 6:40 PM CDT
Civil Twilight 7:04 AM CDT 7:05 PM CDT
Nautical Twilight 6:36 AM CDT 7:33 PM CDT
Astronomical Twilight 6:09 AM CDT 8:00 PM CDT
Moon 6:05 AM CDT (10/25) 5:42 PM CDT (10/25)
Length of Visible Light 12h 00m
Length of Day
11h 11m
Waning Crescent, 2% of the Moon is Illuminated
Oct 25
Waning Crescent
Oct 26
New
Nov 2
First Quarter
Nov 10
Full
Nov 18
Last Quarter

Hourly Weather History & Observations

Time (CDT) Temp. Heat Index Dew Point Humidity Pressure Visibility Wind Dir Wind Speed Gust Speed Precip Events Conditions
12:53 AM 72.0 °F - 68.0 °F 87% 30.17 in 10.0 mi ESE 4.6 mph - N/A   Mostly Cloudy
1:53 AM 72.0 °F - 69.1 °F 91% 30.16 in 10.0 mi SE 3.5 mph - N/A   Partly Cloudy
2:53 AM 71.1 °F - 69.1 °F 93% 30.15 in 10.0 mi Calm Calm - N/A   Partly Cloudy
3:53 AM 71.1 °F - 69.1 °F 93% 30.14 in 10.0 mi SE 4.6 mph - N/A   Partly Cloudy
4:53 AM 70.0 °F - 69.1 °F 97% 30.13 in 6.0 mi SE 4.6 mph - N/A   Partly Cloudy
5:53 AM 70.0 °F - 69.1 °F 97% 30.14 in 6.0 mi Calm Calm - N/A   Partly Cloudy
6:53 AM 69.8 °F - 68.0 °F 94% 30.13 in 7.0 mi SE 3.5 mph - N/A   Partly Cloudy
7:53 AM 69.1 °F - 68.0 °F 96% 30.16 in 7.0 mi Calm Calm - N/A   Scattered Clouds
8:53 AM 72.0 °F - 70.0 °F 93% 30.17 in 10.0 mi SE 4.6 mph - N/A   Partly Cloudy
9:53 AM 77.0 °F - 70.0 °F 79% 30.17 in 10.0 mi SSE 5.8 mph - N/A   Partly Cloudy
10:53 AM 79.0 °F - 68.0 °F 69% 30.17 in 10.0 mi SSE 8.1 mph - N/A   Scattered Clouds
11:53 AM 82.0 °F 84.1 °F 66.0 °F 58% 30.16 in 10.0 mi South 6.9 mph - N/A   Scattered Clouds
12:53 PM 84.0 °F 85.4 °F 64.0 °F 51% 30.13 in 10.0 mi South 9.2 mph - N/A   Scattered Clouds
1:53 PM 84.2 °F 85.6 °F 64.4 °F 51% 30.08 in 10.0 mi SSE 8.1 mph - N/A   Scattered Clouds
2:53 PM 82.9 °F 84.4 °F 64.0 °F 53% 30.08 in 10.0 mi SSE 10.4 mph - N/A   Scattered Clouds
3:53 PM 82.9 °F 84.6 °F 64.9 °F 54% 30.06 in 10.0 mi SSE 12.7 mph - N/A   Scattered Clouds
4:53 PM 81.0 °F 82.7 °F 64.9 °F 58% 30.05 in 10.0 mi SSE 13.8 mph - N/A   Scattered Clouds
5:53 PM 79.0 °F - 66.9 °F 66% 30.04 in 10.0 mi SSE 10.4 mph - N/A   Scattered Clouds
6:53 PM 75.9 °F - 68.0 °F 76% 30.04 in 10.0 mi SSE 10.4 mph - N/A   Scattered Clouds
7:53 PM 73.9 °F - 68.0 °F 82% 30.04 in 10.0 mi SSE 8.1 mph - N/A   Partly Cloudy
8:53 PM 73.0 °F - 66.9 °F 81% 30.05 in 10.0 mi SSE 6.9 mph - N/A   Clear
9:53 PM 72.0 °F - 66.9 °F 84% 30.06 in 10.0 mi SSE 4.6 mph - N/A   Clear
10:53 PM 72.0 °F - 66.0 °F 81% 30.05 in 10.0 mi South 5.8 mph - N/A   Clear
11:53 PM 71.1 °F - 66.0 °F 84% 30.04 in 10.0 mi SSE 5.8 mph - N/A   Clear